Weather in Holubivka

Ukraine / Luhansk Region     48˚38′15″N   38˚38′36″E
temp.,
°C
wind,
m/s
gust,
m/s
humid.,
%
clouds,
%
prec.,
mm/h
press.,
hPa
HPBL,
m
1 december, tue
tue123:00ese6127399 0.0 1028645
02:00ese6138097 0.0 1028639
05:00−2˚ese7148790 0.0 1028580
08:00−1˚ese8148777 0.0 1028589
11:00ese81283100 0.0 1029692
14:00+1˚ese81283100 0.0 1028875
17:00e61288100 0.0 1028656
20:00−1˚e8137598 0.0 1029637
2 december, wed
wed223:00−3˚ese6127564 0.0 1030624
02:00−3˚ese6117973 0.0 1030624
05:00−2˚e61085100 0.0 1030481
08:00−2˚e61185100 0.1 1031489
11:00−2˚e61083100 0.1 1031535
14:00−1˚ese61181100 0.1 1030561
17:00−1˚ese6118393 0.0 1031563
20:00−1˚ese7118497 0.0 1031539
3 december, thu
thu323:00−1˚ese71187100 0.0 1031528
02:00−1˚ese71194100 0.6 1031512
05:00−2˚ese71191100 0.4 1030512
08:00−2˚ese71191100 0.8 1031516
11:00ese61192100 0.6 1030506
14:00ese61095100 1.1 1029443
17:00−1˚ese5997100 0.8 1030481
20:00ese5996100 1.2 1029472
4 december, fri
fri423:00ese5996100 0.3 1029418
02:00−1˚ese61096100 0.6 1029395
05:00−1˚ese61095100 0.6 1029417
08:00−1˚ese61094100 0.9 1030450
11:00ese6992100 0.0 1030478
14:00ese61092100 0.0 1029447
17:00−1˚ese61190100 0.0 1030507
20:00−1˚ese61186100 0.0 1031537
5 december, sat
sat523:00−1˚ese61183100 0.0 1031486
02:00−2˚ese51083100 0.0 1031461
05:00−2˚ese61082100 0.0 1032445
08:00−3˚ese6108296 0.0 1033399
11:00−2˚e697753 0.0 1033430
14:00−2˚e697434 0.0 1032485
17:00−4˚e5127613 0.0 1033405
20:00−5˚ese612736 0.0 1034427